Language: 


Des rapports , des résumés tant et plus, au choix de chacun....


Données statistiques de la station
Quotidien Rapport Juin 17, 2017 Unités:  Anglais    Métrique   les deux
« Précédent Jour
Suivant Jour »
Quotidien Hebdomadaire Mensuel Annuel Actuel
  Haut: Bas: Moyen:
Température: 85.5 °F 32 °F 75.7 °F
Pt de rosée: 73.4 °F 55.4 °F 65.1 °F
Humidité: 98 % 0 % 71 %
Vitesse du vent: 9.8 mph 0 mph 3.4 mph
Rafales: 11 mph - -
Vent:- - WSW
Pression: 30.3 in 0 in -
Précipitation: 0 in    
Historical Graphs
 
 
Données statistiques pour Juin 17, 2017
Heure Température Point de rosée Pression Vent Vitesse du vent Refales Humidité Pluie (taux horaire)
00:04 73 °F 73.4 °F 30.3 in WSW 6.5 mph 8.5 mph 98 % 0 in
00:09 73 °F 73.4 °F 30.3 in WSW 7.4 mph 8.7 mph 98 % 0 in
00:14 73 °F 73.4 °F 30.3 in WSW 7.4 mph 8.7 mph 98 % 0 in
00:19 73 °F 73.4 °F 30.3 in WSW 5.4 mph 8.7 mph 98 % 0 in
00:24 73 °F 73.4 °F 30.3 in West 4 mph 8.7 mph 98 % 0 in
00:29 73 °F 73.4 °F 30.3 in WSW 4 mph 8.7 mph 98 % 0 in
00:34 73 °F 73.4 °F 30.3 in WSW 6.3 mph 8.1 mph 98 % 0 in
00:39 73 °F 73.4 °F 30.3 in West 3.6 mph 6.3 mph 98 % 0 in
00:44 73 °F 73.4 °F 30.3 in West 3.8 mph 6.5 mph 98 % 0 in
00:49 73 °F 73.4 °F 30.3 in WSW 6.5 mph 8.1 mph 98 % 0 in
00:54 73 °F 73.4 °F 30.3 in West 4.3 mph 8.1 mph 98 % 0 in
00:59 73 °F 73.4 °F 30.3 in West 6.5 mph 7.8 mph 98 % 0 in
01:04 73 °F 73.4 °F 30.3 in WSW 4.9 mph 7.8 mph 98 % 0 in
01:09 73 °F 73.4 °F 30.3 in WSW 3.8 mph 8.5 mph 98 % 0 in
01:14 73 °F 73.4 °F 30.3 in West 6 mph 8.5 mph 98 % 0 in
01:19 73 °F 73.4 °F 30.3 in WSW 4.9 mph 8.7 mph 98 % 0 in
01:24 73 °F 73.4 °F 30.3 in West 3.6 mph 8.7 mph 98 % 0 in
01:29 73 °F 73.4 °F 30.3 in Calm   6.3 mph 98 % 0 in
01:34 73 °F 73.4 °F 30.3 in WSW 4.3 mph 5.8 mph 98 % 0 in
01:39 73 °F 73.4 °F 30.3 in WSW 4.3 mph 6.5 mph 98 % 0 in
01:45 73 °F 73.4 °F 30.3 in WSW 5.8 mph 6.5 mph 98 % 0 in
01:50 73 °F 73.4 °F 30.3 in WSW 5.8 mph 6.3 mph 98 % 0 in
01:55 73 °F 73.4 °F 30.3 in WSW 4 mph 6.5 mph 98 % 0 in
02:00 73 °F 73.4 °F 30.3 in Calm   6.5 mph 98 % 0 in
02:05 73 °F 73.4 °F 30.3 in Calm   5.8 mph 98 % 0 in
02:10 73 °F 73.4 °F 30.3 in Calm   5.4 mph 98 % 0 in
02:15 73 °F 73.4 °F 30.3 in Calm   3.6 mph 98 % 0 in
02:20 73 °F 73.4 °F 30.3 in Calm   3.8 mph 98 % 0 in
02:25 73 °F 73.4 °F 30.3 in SW 3.8 mph 4.3 mph 98 % 0 in
02:30 73 °F 73.4 °F 30.3 in WSW 5.8 mph 6.5 mph 98 % 0 in
02:35 73 °F 73.4 °F 30.3 in SW 4.9 mph 7.8 mph 98 % 0 in
02:40 73 °F 73.4 °F 30.3 in WSW 5.6 mph 7.8 mph 98 % 0 in
02:45 73 °F 73.4 °F 30.3 in West 7.4 mph 7.4 mph 98 % 0 in
02:50 73 °F 73.4 °F 30.3 in WSW 5.8 mph 7.4 mph 98 % 0 in
02:55 73 °F 73.4 °F 30.3 in West 6 mph 7.6 mph 98 % 0 in
03:00 73 °F 73.4 °F 30.3 in SW 5.4 mph 7.6 mph 98 % 0 in
03:05 73 °F 73.4 °F 30.3 in WSW 5.8 mph 7.6 mph 98 % 0 in
03:10 73 °F 73.4 °F 30.3 in Calm   6 mph 98 % 0 in
03:15 73 °F 73.4 °F 30.3 in Calm   6 mph 98 % 0 in
03:20 73 °F 73.4 °F 30.3 in Calm   4.7 mph 98 % 0 in
03:25 73 °F 73.4 °F 30.3 in Calm     98 % 0 in
03:30 73 °F 73.4 °F 30.3 in Calm   3.1 mph 98 % 0 in
03:36 73 °F 73.4 °F 30.3 in WSW 3.4 mph 4.3 mph 98 % 0 in
03:41 73 °F 73.4 °F 30.3 in Calm   4.3 mph 98 % 0 in
03:46 73 °F 73.4 °F 30.3 in Calm   4.3 mph 98 % 0 in
03:51 73 °F 73.4 °F 30.3 in Calm   4.3 mph 98 % 0 in
03:56 73 °F 73.4 °F 30.3 in Calm   3.4 mph 98 % 0 in
04:01 73 °F 73.4 °F 30.3 in WSW 4.9 mph 6.5 mph 98 % 0 in
04:06 73 °F 73.4 °F 30.3 in WSW 6.9 mph 6.9 mph 98 % 0 in
04:11 73 °F 73.4 °F 30.3 in WSW 6 mph 7.2 mph 98 % 0 in
04:16 73 °F 73.4 °F 30.3 in WSW 5.8 mph 7.2 mph 98 % 0 in
04:21 73 °F 73.4 °F 30.3 in WSW 6 mph 7.2 mph 98 % 0 in
04:26 73 °F 73.4 °F 30.3 in WSW 6 mph 7.2 mph 98 % 0 in
04:31 73 °F 73.4 °F 30.3 in West 4 mph 6.5 mph 98 % 0 in
04:36 73 °F 73.4 °F 30.3 in WSW 5.8 mph 8.7 mph 98 % 0 in
04:41 73 °F 73.4 °F 30.3 in WSW 8.5 mph 8.7 mph 98 % 0 in
04:46 73 °F 73.4 °F 30.3 in West 6 mph 8.5 mph 98 % 0 in
04:51 73 °F 73.4 °F 30.3 in WSW 6.5 mph 8.5 mph 98 % 0 in
04:56 73 °F 73.4 °F 30.3 in West 5.8 mph 8.5 mph 98 % 0 in
05:01 73 °F 73.4 °F 30.3 in WSW 5.6 mph 7.6 mph 98 % 0 in
05:11 73 °F 73.4 °F 30.3 in West 6.5 mph 8.1 mph 98 % 0 in
05:16 73 °F 73.4 °F 30.3 in WSW 3.8 mph 8.1 mph 98 % 0 in
05:21 73 °F 73.4 °F 30.3 in West 6.5 mph 7.4 mph 98 % 0 in
05:26 73 °F 73.4 °F 30.3 in WSW 6.5 mph 7.2 mph 98 % 0 in
05:31 73 °F 73.4 °F 30.3 in WSW 5.6 mph 7.2 mph 98 % 0 in
05:36 73 °F 73.4 °F 30.3 in West 7.2 mph 7.2 mph 98 % 0 in
05:41 73 °F 73.4 °F 30.3 in WSW 5.6 mph 7.2 mph 98 % 0 in
05:46 73 °F 73.4 °F 30.3 in West 6.3 mph 7.2 mph 98 % 0 in
05:51 73 °F 73.4 °F 30.3 in West 5.6 mph 6.7 mph 98 % 0 in
05:56 73 °F 73.4 °F 30.3 in WSW 4.9 mph 6.5 mph 98 % 0 in
06:02 73 °F 73.4 °F 30.3 in WSW 5.8 mph 6.5 mph 98 % 0 in
06:07 73 °F 73.4 °F 30.3 in WSW 6.3 mph 7.4 mph 98 % 0 in
06:12 73 °F 73.4 °F 30.3 in WSW 4.3 mph 7.4 mph 98 % 0 in
06:17 73 °F 73.4 °F 30.3 in West 6.3 mph 6.5 mph 98 % 0 in
06:22 73 °F 73.4 °F 30.3 in West 4.9 mph 6.5 mph 98 % 0 in
06:27 73 °F 73.4 °F 30.3 in West 5.8 mph 6.3 mph 98 % 0 in
06:32 73 °F 73.4 °F 30.3 in WSW 5.6 mph 6.3 mph 98 % 0 in
06:37 73 °F 73.4 °F 30.3 in West 6 mph 7.2 mph 98 % 0 in
06:42 73 °F 73.4 °F 30.3 in West 4.3 mph 7.2 mph 98 % 0 in
06:47 73 °F 73.4 °F 30.3 in West 4.5 mph 7.2 mph 98 % 0 in
06:52 73 °F 73.4 °F 30.3 in West 5.8 mph 6 mph 98 % 0 in
06:57 73 °F 73.4 °F 30.3 in WSW 5.8 mph 6 mph 98 % 0 in
07:02 73 °F 73.4 °F 30.3 in WSW 5.8 mph 6.5 mph 98 % 0 in
07:07 73 °F 73.4 °F 30.3 in West 4 mph 6.5 mph 98 % 0 in
07:12 73 °F 73.4 °F 30.3 in WSW 5.8 mph 6 mph 98 % 0 in
07:17 73 °F 73.4 °F 30.3 in Calm   6 mph 98 % 0 in
07:22 73 °F 73.4 °F 30.3 in WSW 5.6 mph 5.8 mph 98 % 0 in
07:27 73 °F 73.4 °F 30.3 in Calm   5.8 mph 98 % 0 in
07:32 73 °F 73.4 °F 30.3 in Calm   5.6 mph 98 % 0 in
07:37 73 °F 73.4 °F 30.3 in WSW 3.1 mph 5.4 mph 98 % 0 in
07:42 73 °F 73.4 °F 30.3 in West 5.4 mph 6.3 mph 98 % 0 in
07:47 73 °F 73.4 °F 30.3 in West 3.1 mph 6.3 mph 98 % 0 in
07:52 73 °F 73.4 °F 30.3 in West 3.4 mph 6.3 mph 98 % 0 in
07:57 73 °F 73.4 °F 30.3 in West 3.8 mph 6 mph 98 % 0 in
08:02 73 °F 73.4 °F 30.3 in West 6.3 mph 7.2 mph 98 % 0 in
08:07 73 °F 73.4 °F 30.3 in West 2.7 mph 7.2 mph 98 % 0 in
08:12 73 °F 73.4 °F 30.3 in Calm   7.2 mph 98 % 0 in
08:17 73 °F 73.4 °F 30.3 in Calm   6 mph 98 % 0 in
08:22 73 °F 73.4 °F 30.3 in NW 4.7 mph 6.5 mph 98 % 0 in
08:27 73 °F 73.4 °F 30.3 in Calm   6.5 mph 98 % 0 in
08:32 73 °F 73.4 °F 30.3 in West 3.6 mph 6.5 mph 98 % 0 in
08:37 73 °F 73.4 °F 30.3 in West 4 mph 4 mph 98 % 0 in
08:42 73 °F 73.4 °F 30.3 in NNW 2.2 mph 4 mph 98 % 0 in
08:47 73 °F 73.4 °F 30.3 in NNW 5.4 mph 5.4 mph 98 % 0 in
08:52 73 °F 73.4 °F 30.3 in North 3.8 mph 6.3 mph 98 % 0 in
08:57 73 °F 73.4 °F 30.3 in West 2.9 mph 6.3 mph 98 % 0 in
09:02 32 °F 64.4 °F 0 in NW 4.7 mph 4.7 mph 0 % 0 in
09:07 70 °F 64.4 °F 30.3 in WNW 0.9 mph 4.9 mph 80 % 0 in
09:12 70.3 °F 64.4 °F 30.3 in NNE 0.9 mph 4.9 mph 81 % 0 in
09:18 70.2 °F 64.4 °F 30.3 in Calm   5.6 mph 80 % 0 in
09:23 70.5 °F 64.4 °F 30.3 in West 3.6 mph 5.4 mph 80 % 0 in
09:28 70.3 °F 64.4 °F 30.3 in NW 3.6 mph 5.6 mph 79 % 0 in
09:33 70.5 °F 64.4 °F 30.3 in WNW 2.5 mph 5.6 mph 79 % 0 in
09:38 71.1 °F 64.4 °F 30.3 in Calm   5.6 mph 79 % 0 in
09:43 71.4 °F 64.4 °F 30.3 in West 2.5 mph 4.3 mph 79 % 0 in
09:48 71.8 °F 64.4 °F 30.3 in NNW 2 mph 4.3 mph 79 % 0 in
09:53 71.6 °F 64.4 °F 30.3 in Calm   4.7 mph 76 % 0 in
09:58 73 °F 66.2 °F 30.3 in Calm   4.7 mph 78 % 0 in
10:03 74.3 °F 66.2 °F 30.3 in NE 2 mph 6.5 mph 75 % 0 in
10:08 74.7 °F 66.2 °F 30.3 in Calm   8.5 mph 75 % 0 in
10:13 74.5 °F 66.2 °F 30.3 in WNW 2 mph 8.5 mph 72 % 0 in
10:18 74.3 °F 64.4 °F 30.3 in NNW 2.2 mph 4.3 mph 71 % 0 in
10:24 74.1 °F 64.4 °F 30.3 in Calm   5.6 mph 70 % 0 in
10:29 74.3 °F 64.4 °F 30.3 in Calm   5.6 mph 71 % 0 in
10:34 74.5 °F 64.4 °F 30.3 in WNW 3.4 mph 5.4 mph 69 % 0 in
10:39 75.6 °F 66.2 °F 30.3 in Calm   4.9 mph 70 % 0 in
10:44 75.2 °F 64.4 °F 30.3 in North 3.1 mph 4.9 mph 69 % 0 in
10:49 76.3 °F 66.2 °F 30.3 in Calm   7.8 mph 68 % 0 in
10:54 77.2 °F 66.2 °F 30.3 in NW 4 mph 7.8 mph 67 % 0 in
10:59 75.9 °F 64.4 °F 30.3 in NNE 1.1 mph 4.9 mph 65 % 0 in
11:04 75.6 °F 64.4 °F 30.3 in North 3.4 mph 6.3 mph 66 % 0 in
11:09 77.5 °F 66.2 °F 30.3 in Calm   6.3 mph 68 % 0 in
11:14 77.2 °F 64.4 °F 30.3 in ENE 3.8 mph 5.4 mph 66 % 0 in
11:19 76.3 °F 62.6 °F 30.3 in NNW 3.8 mph 4.9 mph 63 % 0 in
11:21 76.1 °F 62.6 °F 30.3 in Calm   4.9 mph 63 % 0 in
11:26 75.9 °F 62.6 °F 30.3 in North 2.5 mph 6.5 mph 63 % 0 in
11:31 75.7 °F 62.6 °F 30.3 in Calm   6.5 mph 64 % 0 in
11:36 75.6 °F 62.6 °F 30.3 in Calm   4.7 mph 64 % 0 in
11:42 75.4 °F 62.6 °F 30.3 in NNE 5.6 mph 7.4 mph 65 % 0 in
11:47 76.3 °F 64.4 °F 30.3 in Calm   7.4 mph 65 % 0 in
11:52 75.9 °F 64.4 °F 30.3 in NNW 3.8 mph 6 mph 65 % 0 in
11:57 76.1 °F 62.6 °F 30.3 in Calm   6 mph 63 % 0 in
12:02 76.6 °F 62.6 °F 30.3 in North 4.7 mph 6.3 mph 63 % 0 in
12:08 77.4 °F 64.4 °F 30.3 in NW 3.6 mph 7.4 mph 62 % 0 in
12:13 77.4 °F 62.6 °F 30.3 in North 4.9 mph 7.8 mph 61 % 0 in
12:18 76.6 °F 62.6 °F 30.3 in NNE 3.6 mph 7.8 mph 61 % 0 in
12:23 76.6 °F 62.6 °F 30.3 in NNW 2.9 mph 7.8 mph 61 % 0 in
12:29 76.8 °F 62.6 °F 30.3 in NNW 5.4 mph 6 mph 61 % 0 in
12:34 78.8 °F 64.4 °F 30.3 in Calm   5.4 mph 61 % 0 in
12:39 80.1 °F 66.2 °F 30.3 in NNW 2.9 mph 5.6 mph 61 % 0 in
12:44 79 °F 62.6 °F 30.3 in NNE 3.1 mph 5.6 mph 57 % 0 in
12:49 80.6 °F 64.4 °F 30.3 in West 7.4 mph 7.4 mph 58 % 0 in
12:54 80.1 °F 62.6 °F 30.3 in Calm   7.4 mph 55 % 0 in
12:59 79.3 °F 62.6 °F 30.3 in NW 4 mph 5.8 mph 56 % 0 in
13:04 80.6 °F 62.6 °F 30.3 in WNW 5.6 mph 6.5 mph 55 % 0 in
13:07 81.5 °F 64.4 °F 30.3 in NNE 5.8 mph 6.5 mph 54 % 0 in
13:12 79.3 °F 60.8 °F 30.3 in North 6.3 mph 7.6 mph 53 % 0 in
13:17 78.4 °F 60.8 °F 30.3 in NW 3.8 mph 7.6 mph 54 % 0 in
13:22 80.2 °F 62.6 °F 30.3 in Calm   5.6 mph 55 % 0 in
13:27 79.7 °F 62.6 °F 30.3 in NNE 5.4 mph 8.9 mph 53 % 0 in
13:32 78.3 °F 60.8 °F 30.3 in West 2 mph 8.9 mph 54 % 0 in
13:37 79.2 °F 62.6 °F 30.3 in North 2.9 mph 6.5 mph 55 % 0 in
13:42 81.3 °F 62.6 °F 30.3 in WNW 3.6 mph 7.6 mph 53 % 0 in
13:47 80.2 °F 60.8 °F 30.3 in NNW 2.7 mph 8.7 mph 52 % 0 in
13:52 79 °F 60.8 °F 30.3 in Calm   8.7 mph 53 % 0 in
13:57 81 °F 64.4 °F 30.3 in West 3.8 mph 4.9 mph 54 % 0 in
14:02 82.2 °F 62.6 °F 30.3 in North 2.9 mph 5.8 mph 49 % 0 in
14:07 81.7 °F 60.8 °F 30.3 in NNW 3.1 mph 7.8 mph 49 % 0 in
14:12 82.2 °F 60.8 °F 30.3 in North 2.9 mph 8.1 mph 48 % 0 in
14:17 81.1 °F 60.8 °F 30.3 in North 5.6 mph 8.1 mph 49 % 0 in
14:22 82.2 °F 60.8 °F 30.3 in North 0.9 mph 8.1 mph 48 % 0 in
14:27 82.4 °F 60.8 °F 30.3 in North 3.1 mph 9.6 mph 47 % 0 in
14:32 83.3 °F 62.6 °F 30.3 in NE 6.5 mph 9.6 mph 47 % 0 in
14:37 82.4 °F 60.8 °F 30.3 in North 7.8 mph 7.8 mph 46 % 0 in
14:43 83.7 °F 62.6 °F 30.3 in WNW 3.8 mph 8.5 mph 47 % 0 in
14:48 82.8 °F 60.8 °F 30.3 in WSW 5.4 mph 8.5 mph 46 % 0 in
14:53 84.6 °F 62.6 °F 30.3 in North 1.6 mph 8.5 mph 46 % 0 in
14:58 85.1 °F 62.6 °F 30.3 in Calm   7.4 mph 45 % 0 in
15:03 83.8 °F 60.8 °F 30.3 in NE 1.6 mph 7.4 mph 45 % 0 in
15:08 83.8 °F 60.8 °F 30.3 in NNW 4.9 mph 6.3 mph 44 % 0 in
15:13 84.4 °F 60.8 °F 30.3 in NNW 5.8 mph 7.2 mph 44 % 0 in
15:18 84.4 °F 59 °F 30.3 in West 4.3 mph 7.8 mph 43 % 0 in
15:23 84.4 °F 60.8 °F 30.3 in North 2 mph 7.8 mph 44 % 0 in
15:28 84.4 °F 60.8 °F 30.3 in ENE 3.6 mph 7.6 mph 44 % 0 in
15:33 84.4 °F 60.8 °F 30.3 in NNE 2.7 mph 7.4 mph 44 % 0 in
15:38 84.9 °F 59 °F 30.3 in North 2.7 mph 6.7 mph 43 % 0 in
15:43 84.9 °F 59 °F 30.3 in WNW 2 mph 6.7 mph 43 % 0 in
15:49 85.5 °F 59 °F 30.3 in West 5.4 mph 5.8 mph 42 % 0 in
15:54 85.1 °F 60.8 °F 30.3 in NNW 6 mph 6 mph 43 % 0 in
15:59 83.1 °F 59 °F 30.3 in NNW 7.4 mph 8.7 mph 43 % 0 in
16:04 84.2 °F 59 °F 30.3 in North 4.9 mph 8.7 mph 43 % 0 in
16:09 84.4 °F 59 °F 30.3 in North 4.9 mph 7.4 mph 43 % 0 in
16:14 84.6 °F 59 °F 30.3 in Calm   7.4 mph 42 % 0 in
16:19 84.6 °F 59 °F 30.3 in NNE 5.6 mph 8.1 mph 43 % 0 in
16:24 83.8 °F 59 °F 30.3 in NE 6.3 mph 8.5 mph 43 % 0 in
16:29 84.4 °F 59 °F 30.3 in NNW 4.3 mph 8.5 mph 43 % 0 in
16:34 84.6 °F 59 °F 30.3 in NE 2.2 mph 8.5 mph 42 % 0 in
16:36 84.7 °F 59 °F 30.3 in NNE 6.3 mph 8.5 mph 42 % 0 in
16:39 84.9 °F 59 °F 30.3 in NNE 5.4 mph 8.5 mph 43 % 0 in
16:44 85.1 °F 60.8 °F 30.3 in Calm   8.1 mph 43 % 0 in
16:49 84.9 °F 59 °F 30.3 in North 3.4 mph 8.1 mph 42 % 0 in
16:54 85.1 °F 60.8 °F 30.3 in NW 2.5 mph 8.1 mph 43 % 0 in
16:59 84.4 °F 59 °F 30.3 in NNW 4 mph 10.3 mph 42 % 0 in
17:04 84 °F 59 °F 30.3 in North 3.4 mph 10.3 mph 42 % 0 in
17:09 84.2 °F 59 °F 30.3 in NNE 3.6 mph 8.5 mph 42 % 0 in
17:14 84 °F 59 °F 30.3 in North 4.5 mph 10.1 mph 43 % 0 in
17:19 84.2 °F 59 °F 30.3 in NNW 4 mph 10.1 mph 42 % 0 in
17:24 84 °F 59 °F 30.3 in NNE 3.4 mph 7.8 mph 43 % 0 in
17:29 83.7 °F 59 °F 30.3 in NNW 5.6 mph 8.5 mph 42 % 0 in
17:34 84 °F 59 °F 30.3 in Calm   7.2 mph 42 % 0 in
17:39 84 °F 59 °F 30.3 in NNE 7.8 mph 7.8 mph 43 % 0 in
17:44 83.7 °F 59 °F 30.3 in NNE 7.6 mph 10.7 mph 43 % 0 in
17:49 83.1 °F 59 °F 30.3 in North 8.7 mph 11 mph 43 % 0 in
17:54 82.9 °F 59 °F 30.3 in North 7.8 mph 11 mph 43 % 0 in
18:00 83.3 °F 59 °F 30.3 in North 4.9 mph 8.5 mph 43 % 0 in
18:05 83.3 °F 60.8 °F 30.3 in NE 2.5 mph 7.8 mph 44 % 0 in
18:10 83.3 °F 60.8 °F 30.3 in WNW 6.5 mph 8.5 mph 45 % 0 in
18:15 82.8 °F 59 °F 30.3 in NNE 3.1 mph 8.1 mph 44 % 0 in
18:20 82.6 °F 59 °F 30.3 in NE 3.4 mph 8.1 mph 44 % 0 in
18:25 82.2 °F 59 °F 30.3 in NNE 3.4 mph 11 mph 45 % 0 in
18:30 82.2 °F 59 °F 30.3 in North 5.4 mph 11 mph 44 % 0 in
18:36 81.9 °F 59 °F 30.3 in NNE 9.8 mph 9.8 mph 45 % 0 in
18:41 81.9 °F 59 °F 30.3 in North 3.4 mph 9.8 mph 45 % 0 in
18:46 81.5 °F 59 °F 30.3 in North 3.8 mph 8.7 mph 45 % 0 in
18:51 81.5 °F 59 °F 30.3 in NNW 3.4 mph 8.7 mph 46 % 0 in
18:56 81.7 °F 59 °F 30.3 in North 3.6 mph 7.6 mph 46 % 0 in
19:01 81.1 °F 57.2 °F 30.3 in NNW 6.5 mph 8.7 mph 44 % 0 in
19:06 80.8 °F 57.2 °F 30.3 in NNE 6.5 mph 8.7 mph 45 % 0 in
19:11 81 °F 59 °F 30.3 in NNE 6.9 mph 7.8 mph 46 % 0 in
19:16 80.8 °F 57.2 °F 30.3 in NE 5.8 mph 8.7 mph 45 % 0 in
19:21 80.4 °F 59 °F 30.3 in North 6 mph 8.7 mph 46 % 0 in
19:26 80.2 °F 57.2 °F 30.3 in NNW 4.3 mph 7.2 mph 45 % 0 in
19:31 80.1 °F 57.2 °F 30.3 in North 3.1 mph 7.2 mph 46 % 0 in
19:36 79.9 °F 59 °F 30.2 in NNW 7.4 mph 7.6 mph 47 % 0 in
19:41 79.9 °F 57.2 °F 30.2 in North 5.8 mph 8.1 mph 46 % 0 in
19:46 79.7 °F 57.2 °F 30.3 in North 4.9 mph 8.1 mph 46 % 0 in
19:51 79.5 °F 57.2 °F 30.3 in North 5.6 mph 7.6 mph 47 % 0 in
19:56 79.2 °F 57.2 °F 30.3 in NNE 4 mph 8.5 mph 46 % 0 in
20:01 78.8 °F 57.2 °F 30.3 in NNW 5.6 mph 8.5 mph 46 % 0 in
20:06 78.6 °F 57.2 °F 30.3 in North 2.9 mph 7.8 mph 47 % 0 in
20:11 78.6 °F 57.2 °F 30.3 in North 3.1 mph 7.6 mph 47 % 0 in
20:16 78.4 °F 57.2 °F 30.3 in NNW 4.7 mph 7.6 mph 47 % 0 in
20:21 77.9 °F 57.2 °F 30.3 in NNE 5.4 mph 7.4 mph 48 % 0 in
20:26 77.5 °F 57.2 °F 30.3 in NE 3.8 mph 7.4 mph 48 % 0 in
20:31 77.4 °F 57.2 °F 30.3 in North 3.4 mph 7.4 mph 49 % 0 in
20:36 76.8 °F 57.2 °F 30.3 in North 0.9 mph 5.4 mph 50 % 0 in
20:42 76.6 °F 57.2 °F 30.3 in ENE 3.1 mph 5.6 mph 50 % 0 in
20:47 76.3 °F 57.2 °F 30.3 in ENE 1.1 mph 6 mph 50 % 0 in
20:52 75.4 °F 55.4 °F 30.3 in NE 2.9 mph 6 mph 51 % 0 in
20:57 74.8 °F 57.2 °F 30.3 in North 3.1 mph 6 mph 53 % 0 in
21:02 74.5 °F 57.2 °F 30.3 in NE 3.4 mph 5.8 mph 54 % 0 in
21:07 74.1 °F 57.2 °F 30.3 in NNE 3.6 mph 4.5 mph 55 % 0 in
21:12 73.8 °F 57.2 °F 30.3 in NNE 2.7 mph 4 mph 56 % 0 in
21:17 73.4 °F 57.2 °F 30.3 in Calm   4 mph 57 % 0 in
21:22 73 °F 57.2 °F 30.3 in Calm   4.3 mph 58 % 0 in
21:27 72.7 °F 57.2 °F 30.3 in Calm   4.3 mph 58 % 0 in
21:32 72.3 °F 57.2 °F 30.3 in Calm     60 % 0 in
21:37 72 °F 57.2 °F 30.3 in Calm     60 % 0 in
21:42 71.4 °F 57.2 °F 30.3 in NNE 2 mph 2.2 mph 62 % 0 in
21:47 71.1 °F 57.2 °F 30.3 in Calm   2.2 mph 62 % 0 in
21:52 70.7 °F 57.2 °F 30.3 in Calm     63 % 0 in
21:57 70.3 °F 57.2 °F 30.3 in Calm     63 % 0 in
22:02 69.8 °F 57.2 °F 30.3 in Calm   1.3 mph 64 % 0 in
22:07 69.6 °F 57.2 °F 30.3 in Calm   1.3 mph 65 % 0 in
22:12 69.3 °F 57.2 °F 30.3 in Calm   2.9 mph 65 % 0 in
22:17 69.1 °F 57.2 °F 30.3 in Calm   2.9 mph 66 % 0 in
22:23 68.9 °F 57.2 °F 30.3 in North 1.6 mph 2.5 mph 67 % 0 in
22:28 68.7 °F 57.2 °F 30.3 in Calm   2.5 mph 67 % 0 in
22:33 68.4 °F 57.2 °F 30.3 in Calm   2.2 mph 68 % 0 in
22:38 68 °F 57.2 °F 30.3 in Calm   0.9 mph 68 % 0 in
22:43 67.6 °F 57.2 °F 30.3 in Calm     69 % 0 in
22:48 67.1 °F 57.2 °F 30.3 in Calm     69 % 0 in
22:53 66.7 °F 57.2 °F 30.3 in Calm     71 % 0 in
22:58 66.6 °F 57.2 °F 30.3 in Calm     71 % 0 in
23:03 66.4 °F 57.2 °F 30.3 in Calm     71 % 0 in
23:05 66.2 °F 57.2 °F 30.3 in Calm     71 % 0 in
23:10 65.8 °F 57.2 °F 30.3 in Calm   1.3 mph 72 % 0 in
23:15 65.5 °F 57.2 °F 30.3 in Calm   1.3 mph 73 % 0 in
23:20 65.3 °F 57.2 °F 30.3 in Calm     74 % 0 in
23:25 64.9 °F 57.2 °F 30.3 in Calm     75 % 0 in
23:30 64.6 °F 57.2 °F 30.3 in Calm   1.1 mph 75 % 0 in
23:36 64.4 °F 57.2 °F 30.3 in Calm   1.1 mph 76 % 0 in
23:41 64.2 °F 57.2 °F 30.3 in Calm     76 % 0 in
23:46 63.7 °F 57.2 °F 30.3 in Calm     77 % 0 in
23:51 63.5 °F 57.2 °F 30.3 in Calm     78 % 0 in
23:56 63.3 °F 57.2 °F 30.3 in Calm     79 % 0 in
Le Gheer Warneton
Courtoisie de Weather Underground - 2.5 mb

Mise a jour : 17-12-17 08:56:12
Généré par Cumulus 1.9.4 (1099)